• En España
  • Lista de países
  • Para 7 días
  • Temperatura del agua
  • Mapa Satelital
  • El tiempo en el mapa
  • Informadores
  • user-avatar
    Iniciar sesión

    Tiempo cada hora Ivanovskie Vyselki

    Hoy, 23 Septiembre, Domingo

    Tiempo Temperatura Precipitaciones Viento Presión Humedad
    00:00 +20°C° 0 mm 6 mps 742 mmHg 53%
    01:00 +19°C° 0 mm 6 mps 741 mmHg 53%
    02:00 +19°C° 0 mm 6 mps 741 mmHg 53%
    03:00 +19°C° 0 mm 6 mps 740 mmHg 54%
    04:00 +17°C° 0 mm 6 mps 740 mmHg 56%
    05:00 +17°C° 0 mm 6 mps 740 mmHg 58%
    06:00 +16°C° 0 mm 6 mps 740 mmHg 59%
    07:00 +15°C° 0.4 mm 6 mps 740 mmHg 66%
    08:00 +14°C° 0.4 mm 6 mps 740 mmHg 73%
    09:00 +12°C° 0.4 mm 7 mps 740 mmHg 80%
    10:00 +11°C° 0.8 mm 6 mps 740 mmHg 81%
    11:00 +10°C° 0.8 mm 6 mps 741 mmHg 82%
    12:00 +9°C° 0.8 mm 5 mps 741 mmHg 83%
    13:00 +10°C° 0.1 mm 5 mps 742 mmHg 81%
    14:00 +10°C° 0.1 mm 5 mps 742 mmHg 79%
    15:00 +12°C° 0.1 mm 4 mps 743 mmHg 76%
    16:00 +12°C° 0 mm 4 mps 743 mmHg 76%
    17:00 +12°C° 0 mm 3 mps 742 mmHg 76%
    18:00 +12°C° 0 mm 3 mps 742 mmHg 76%
    19:00 +11°C° 0 mm 3 mps 742 mmHg 78%
    20:00 +11°C° 0 mm 3 mps 743 mmHg 81%
    21:00 +10°C° 0 mm 3 mps 743 mmHg 83%
    22:00 +10°C° 0 mm 3 mps 743 mmHg 85%
    23:00 +9°C° 0 mm 3 mps 743 mmHg 87%

    Mañana, 24 Septiembre, Lunes

    Tiempo Temperatura Precipitaciones Viento Presión Humedad
    00:00 +9°C° 0 mm 3 mps 743 mmHg 88%
    01:00 +9°C° 0 mm 3 mps 743 mmHg 89%
    02:00 +8°C° 0 mm 3 mps 743 mmHg 90%
    03:00 +8°C° 0 mm 3 mps 743 mmHg 91%
    04:00 +8°C° 0 mm 3 mps 743 mmHg 90%
    05:00 +8°C° 0 mm 3 mps 743 mmHg 89%
    06:00 +8°C° 0 mm 3 mps 743 mmHg 88%
    07:00 +9°C° 0 mm 3 mps 742 mmHg 84%
    08:00 +10°C° 0 mm 3 mps 742 mmHg 79%
    09:00 +11°C° 0 mm 4 mps 742 mmHg 74%
    10:00 +12°C° 0 mm 5 mps 742 mmHg 71%
    11:00 +13°C° 0 mm 6 mps 741 mmHg 67%
    12:00 +12°C° 0 mm 7 mps 741 mmHg 64%
    13:00 +11°C° 1.1 mm 7 mps 740 mmHg 70%
    14:00 +10°C° 1.1 mm 7 mps 739 mmHg 77%
    15:00 +9°C° 1.1 mm 8 mps 738 mmHg 83%
    16:00 +10°C° 1.5 mm 9 mps 737 mmHg 84%
    17:00 +9°C° 1.5 mm 10 mps 735 mmHg 85%
    18:00 +9°C° 1.5 mm 10 mps 734 mmHg 87%
    19:00 +11°C° 1.1 mm 11 mps 733 mmHg 87%
    20:00 +11°C° 1.1 mm 11 mps 731 mmHg 87%
    21:00 +12°C° 1.1 mm 11 mps 730 mmHg 88%
    22:00 +11°C° 0.2 mm 10 mps 730 mmHg 86%
    23:00 +9°C° 0.2 mm 10 mps 730 mmHg 84%

    Pasado mañana, 25 Septiembre, Martes

    Tiempo Temperatura Precipitaciones Viento Presión Humedad
    00:00 +8°C° 0.2 mm 10 mps 730 mmHg 82%
    01:00 +8°C° 0 mm 9 mps 730 mmHg 82%
    02:00 +7°C° 0 mm 9 mps 731 mmHg 82%
    03:00 +7°C° 0 mm 9 mps 732 mmHg 82%
    04:00 +7°C° 0 mm 8 mps 732 mmHg 82%
    05:00 +7°C° 0 mm 8 mps 733 mmHg 83%
    06:00 +6°C° 0 mm 8 mps 733 mmHg 83%
    07:00 +7°C° 0 mm 8 mps 734 mmHg 82%
    08:00 +7°C° 0 mm 8 mps 734 mmHg 81%
    09:00 +7°C° 0 mm 9 mps 735 mmHg 80%
    10:00 +7°C° 0 mm 8 mps 735 mmHg 78%
    11:00 +7°C° 0 mm 8 mps 736 mmHg 77%
    12:00 +7°C° 0 mm 8 mps 737 mmHg 76%
    13:00 +7°C° 0 mm 8 mps 737 mmHg 75%
    14:00 +6°C° 0 mm 8 mps 738 mmHg 74%
    15:00 +6°C° 0 mm 8 mps 739 mmHg 73%
    16:00 +6°C° 0 mm 8 mps 739 mmHg 73%
    17:00 +6°C° 0 mm 7 mps 740 mmHg 73%
    18:00 +6°C° 0 mm 7 mps 741 mmHg 72%
    19:00 +5°C° 0 mm 7 mps 741 mmHg 73%
    20:00 +5°C° 0 mm 6 mps 742 mmHg 73%
    21:00 +5°C° 0 mm 6 mps 742 mmHg 73%
    22:00 +4°C° 0 mm 6 mps 743 mmHg 74%
    23:00 +4°C° 0 mm 6 mps 743 mmHg 75%

    26 Septiembre, Miércoles

    Tiempo Temperatura Precipitaciones Viento Presión Humedad
    00:00 +5°C° 0 mm 5 mps 743 mmHg 76%
    01:00 +5°C° 0 mm 5 mps 744 mmHg 77%
    02:00 +5°C° 0 mm 5 mps 745 mmHg 77%
    03:00 +3°C° 0 mm 5 mps 745 mmHg 78%
    04:00 +3°C° 0 mm 5 mps 746 mmHg 77%
    05:00 +2°C° 0 mm 5 mps 747 mmHg 76%
    06:00 +2°C° 0 mm 5 mps 747 mmHg 75%
    07:00 +2°C° 0 mm 6 mps 748 mmHg 72%
    08:00 +3°C° 0 mm 6 mps 748 mmHg 69%
    09:00 +3°C° 0 mm 6 mps 749 mmHg 66%
    10:00 +4°C° 0 mm 6 mps 749 mmHg 62%
    11:00 +7°C° 0 mm 6 mps 750 mmHg 57%
    12:00 +8°C° 0 mm 6 mps 750 mmHg 52%
    13:00 +8°C° 0 mm 6 mps 750 mmHg 52%
    14:00 +9°C° 0 mm 6 mps 750 mmHg 51%
    15:00 +9°C° 0 mm 7 mps 750 mmHg 51%
    16:00 +9°C° 0 mm 6 mps 749 mmHg 55%
    17:00 +8°C° 0 mm 5 mps 749 mmHg 58%
    18:00 +7°C° 0 mm 4 mps 749 mmHg 62%
    19:00 +7°C° 0 mm 5 mps 749 mmHg 64%
    20:00 +7°C° 0 mm 5 mps 749 mmHg 65%
    21:00 +7°C° 0 mm 6 mps 749 mmHg 66%
    22:00 +7°C° 0 mm 6 mps 748 mmHg 69%
    23:00 +7°C° 0 mm 6 mps 748 mmHg 71%

    27 Septiembre, Jueves

    Tiempo Temperatura Precipitaciones Viento Presión Humedad
    00:00 +6°C° 0 mm 7 mps 747 mmHg 74%
    01:00 +6°C° 0.2 mm 7 mps 747 mmHg 76%
    02:00 +6°C° 0.2 mm 8 mps 746 mmHg 78%
    03:00 +5°C° 0.2 mm 8 mps 745 mmHg 80%
    04:00 +5°C° 0.3 mm 9 mps 745 mmHg 80%
    05:00 +5°C° 0.3 mm 9 mps 744 mmHg 79%
    06:00 +5°C° 0.3 mm 10 mps 743 mmHg 79%
    07:00 +5°C° 0.1 mm 10 mps 743 mmHg 79%
    08:00 +5°C° 0.1 mm 10 mps 742 mmHg 79%
    09:00 +5°C° 0.1 mm 10 mps 742 mmHg 80%
    10:00 +6°C° 0.1 mm 10 mps 742 mmHg 79%
    11:00 +6°C° 0.1 mm 10 mps 741 mmHg 79%
    12:00 +7°C° 0.1 mm 9 mps 741 mmHg 79%
    13:00 +7°C° 0.2 mm 9 mps 741 mmHg 80%
    14:00 +7°C° 0.2 mm 9 mps 740 mmHg 82%
    15:00 +7°C° 0.2 mm 9 mps 740 mmHg 83%
    16:00 +7°C° 0.5 mm 9 mps 740 mmHg 84%
    17:00 +7°C° 0.5 mm 9 mps 739 mmHg 85%
    18:00 +7°C° 0.5 mm 9 mps 739 mmHg 86%
    19:00 +7°C° 0.3 mm 9 mps 739 mmHg 87%
    20:00 +7°C° 0.3 mm 8 mps 738 mmHg 87%
    21:00 +9°C° 0.3 mm 8 mps 738 mmHg 88%
    22:00 +9°C° 0.3 mm 8 mps 738 mmHg 88%
    23:00 +9°C° 0.3 mm 8 mps 738 mmHg 88%

    28 Septiembre, Viernes

    Tiempo Temperatura Precipitaciones Viento Presión Humedad
    00:00 +10°C° 0.3 mm 8 mps 737 mmHg 87%
    01:00 +10°C° 0.3 mm 8 mps 737 mmHg 86%
    02:00 +10°C° 0.3 mm 8 mps 737 mmHg 86%
    03:00 +10°C° 0.3 mm 8 mps 738 mmHg 85%
    04:00 +9°C° 0 mm 7 mps 738 mmHg 86%
    05:00 +8°C° 0 mm 7 mps 738 mmHg 87%
    06:00 +7°C° 0 mm 6 mps 738 mmHg 88%
    07:00 +8°C° 0 mm 6 mps 738 mmHg 85%
    08:00 +8°C° 0 mm 7 mps 739 mmHg 82%
    09:00 +9°C° 0 mm 7 mps 739 mmHg 78%
    10:00 +10°C° 0 mm 7 mps 739 mmHg 73%
    11:00 +11°C° 0 mm 7 mps 739 mmHg 68%
    12:00 +11°C° 0 mm 7 mps 740 mmHg 62%
    13:00 +11°C° 0.1 mm 7 mps 739 mmHg 63%
    14:00 +11°C° 0.1 mm 7 mps 739 mmHg 63%
    15:00 +11°C° 0.1 mm 6 mps 739 mmHg 64%
    16:00 +10°C° 0.1 mm 6 mps 739 mmHg 67%
    17:00 +9°C° 0.1 mm 5 mps 739 mmHg 70%
    18:00 +10°C° 0.1 mm 4 mps 739 mmHg 74%
    19:00 +8°C° 0.1 mm 4 mps 740 mmHg 75%
    20:00 +7°C° 0.1 mm 5 mps 740 mmHg 77%
    21:00 +6°C° 0.1 mm 5 mps 741 mmHg 79%
    22:00 +6°C° 0 mm 5 mps 741 mmHg 77%
    23:00 +5°C° 0 mm 5 mps 742 mmHg 75%
    Mostrar más